Location: Newark
(34.6283°N, 36.0776°E)
Time: 11:49:15
(UTC+00:00)

Tiros 1 despin weight - Pass Details

Date: 27 September 2019
Orbit: 594 x 643 km, 48.2° (Epoch: 15 October)

Event Time Altitude Azimuth Distance (km) Brightness Sun altitude
Rises 05:50:12 0° 212° (SSW) 2,920 ? 27.8°
Reaches altitude 10° 05:52:38 10° 204° (SSW) 2,009 ? 28.3°
Maximum altitude 05:56:57 39° 136° (SE) 942 ? 29.1°
Drops below altitude 10° 06:01:13 10° 67° (ENE) 1,993 ? 29.9°
Sets 06:03:37 0° 60° (ENE) 2,893 ? 30.3°
